When you browse on this site, cookies collect data to enhance your experience and personalize the content and advertising you see.
Visit our Privacy Policy to learn more. By continuing to use the site, you agree to this use of cookies and data.
  • In Hungary
  • List of Countries
  • For 7 days
  • Water Temperature
  • Satellite Maps
  • Weather Map
  • News
  • Weather Widgets
  • user-avatar
    Login

    Hourly Weather Islamabad

    Today, 19 January, Saturday

    Time Temperature Precipitation Wind Pressure Humidity
    00:00 +12°C° 0 mm 2 mps 718 mmHg 39%
    01:00 +12°C° 0 mm 2 mps 718 mmHg 39%
    02:00 +11°C° 0 mm 3 mps 718 mmHg 39%
    03:00 +12°C° 0 mm 2 mps 717 mmHg 39%
    04:00 +12°C° 0 mm 2 mps 717 mmHg 39%
    05:00 +12°C° 0 mm 2 mps 717 mmHg 40%
    06:00 +12°C° 0 mm 2 mps 717 mmHg 41%
    07:00 +13°C° 0 mm 2 mps 717 mmHg 42%
    08:00 +13°C° 0 mm 1 mps 718 mmHg 43%
    09:00 +15°C° 0 mm 2 mps 718 mmHg 39%
    10:00 +17°C° 0 mm 2 mps 719 mmHg 35%
    11:00 +19°C° 0 mm 2 mps 720 mmHg 29%
    12:00 +20°C° 0 mm 2 mps 720 mmHg 28%
    13:00 +21°C° 0 mm 2 mps 719 mmHg 27%
    14:00 +21°C° 0 mm 2 mps 719 mmHg 26%
    15:00 +20°C° 0 mm 2 mps 719 mmHg 30%
    16:00 +19°C° 0 mm 2 mps 719 mmHg 34%
    17:00 +18°C° 0 mm 2 mps 718 mmHg 37%
    18:00 +17°C° 0 mm 2 mps 718 mmHg 38%
    19:00 +17°C° 0 mm 2 mps 718 mmHg 39%
    20:00 +16°C° 0 mm 2 mps 718 mmHg 39%
    21:00 +15°C° 0 mm 2 mps 718 mmHg 41%
    22:00 +15°C° 0 mm 2 mps 718 mmHg 42%
    23:00 +14°C° 0 mm 2 mps 718 mmHg 44%

    Tomorrow, 20 January, Sunday

    Time Temperature Precipitation Wind Pressure Humidity
    00:00 +14°C° 0 mm 2 mps 718 mmHg 44%
    01:00 +14°C° 0 mm 2 mps 718 mmHg 44%
    02:00 +14°C° 0 mm 2 mps 718 mmHg 45%
    03:00 +14°C° 0 mm 2 mps 718 mmHg 45%
    04:00 +14°C° 0 mm 2 mps 718 mmHg 45%
    05:00 +13°C° 0 mm 2 mps 717 mmHg 45%
    06:00 +14°C° 0 mm 2 mps 718 mmHg 45%
    07:00 +14°C° 0 mm 2 mps 718 mmHg 45%
    08:00 +14°C° 0 mm 2 mps 718 mmHg 45%
    09:00 +14°C° 0.2 mm 2 mps 718 mmHg 47%
    10:00 +15°C° 0.2 mm 2 mps 719 mmHg 50%
    11:00 +15°C° 0.2 mm 2 mps 719 mmHg 52%
    12:00 +15°C° 0.4 mm 2 mps 719 mmHg 55%
    13:00 +14°C° 0.4 mm 2 mps 719 mmHg 57%
    14:00 +14°C° 0.4 mm 2 mps 719 mmHg 59%
    15:00 +12°C° 0.5 mm 3 mps 719 mmHg 65%
    16:00 +12°C° 0.5 mm 3 mps 719 mmHg 72%
    17:00 +11°C° 0.5 mm 3 mps 718 mmHg 78%
    18:00 +11°C° 0.1 mm 3 mps 719 mmHg 77%
    19:00 +11°C° 0.1 mm 3 mps 719 mmHg 76%
    20:00 +11°C° 0.1 mm 3 mps 719 mmHg 75%
    21:00 +11°C° 0 mm 3 mps 718 mmHg 75%
    22:00 +12°C° 0 mm 2 mps 718 mmHg 75%
    23:00 +12°C° 0 mm 2 mps 718 mmHg 76%

    Day after tomorrow, 21 January, Monday

    Time Temperature Precipitation Wind Pressure Humidity
    00:00 +12°C° 0.1 mm 2 mps 718 mmHg 76%
    01:00 +12°C° 0.1 mm 1 mps 718 mmHg 76%
    02:00 +12°C° 0.1 mm 1 mps 718 mmHg 76%
    03:00 +12°C° 0.3 mm 1 mps 717 mmHg 77%
    04:00 +12°C° 0.3 mm 2 mps 717 mmHg 79%
    05:00 +10°C° 0.3 mm 2 mps 716 mmHg 80%
    06:00 +10°C° 0.6 mm 2 mps 717 mmHg 80%
    07:00 +10°C° 0.6 mm 2 mps 717 mmHg 79%
    08:00 +10°C° 0.6 mm 2 mps 717 mmHg 79%
    09:00 +10°C° 1.4 mm 2 mps 717 mmHg 78%
    10:00 +11°C° 1.4 mm 3 mps 717 mmHg 76%
    11:00 +11°C° 1.4 mm 3 mps 718 mmHg 75%
    12:00 +11°C° 0.7 mm 3 mps 717 mmHg 76%
    13:00 +12°C° 0.7 mm 2 mps 716 mmHg 76%
    14:00 +12°C° 0.7 mm 2 mps 716 mmHg 77%
    15:00 +10°C° 1.7 mm 2 mps 715 mmHg 80%
    16:00 +10°C° 1.7 mm 3 mps 715 mmHg 83%
    17:00 +9°C° 1.7 mm 3 mps 715 mmHg 87%
    18:00 +9°C° 1.7 mm 3 mps 715 mmHg 86%
    19:00 +9°C° 1.7 mm 2 mps 715 mmHg 86%
    20:00 +9°C° 1.7 mm 2 mps 715 mmHg 86%
    21:00 +9°C° 2.5 mm 2 mps 715 mmHg 87%
    22:00 +9°C° 2.5 mm 2 mps 715 mmHg 88%
    23:00 +8°C° 2.5 mm 2 mps 715 mmHg 90%

    22 January, Tuesday

    Time Temperature Precipitation Wind Pressure Humidity
    00:00 +8°C° 3.3 mm 2 mps 714 mmHg 89%
    01:00 +8°C° 3.3 mm 3 mps 714 mmHg 89%
    02:00 +8°C° 3.3 mm 3 mps 714 mmHg 89%
    03:00 +8°C° 0.9 mm 3 mps 713 mmHg 87%
    04:00 +9°C° 0.9 mm 2 mps 713 mmHg 86%
    05:00 +9°C° 0.9 mm 2 mps 713 mmHg 84%
    06:00 +9°C° 0.3 mm 2 mps 713 mmHg 84%
    07:00 +9°C° 0.3 mm 2 mps 714 mmHg 83%
    08:00 +10°C° 0.3 mm 1 mps 714 mmHg 83%
    09:00 +10°C° 0.9 mm 1 mps 714 mmHg 83%
    10:00 +10°C° 0.9 mm 1 mps 715 mmHg 84%
    11:00 +10°C° 0.9 mm 1 mps 715 mmHg 84%
    12:00 +10°C° 2.5 mm 1 mps 715 mmHg 87%
    13:00 +9°C° 2.5 mm 1 mps 714 mmHg 90%
    14:00 +9°C° 2.5 mm 1 mps 714 mmHg 93%
    15:00 +9°C° 1.1 mm 1 mps 714 mmHg 91%
    16:00 +8°C° 1.1 mm 2 mps 714 mmHg 88%
    17:00 +9°C° 1.1 mm 3 mps 714 mmHg 86%
    18:00 +8°C° 0.1 mm 2 mps 715 mmHg 85%
    19:00 +8°C° 0.1 mm 2 mps 715 mmHg 84%
    20:00 +9°C° 0.1 mm 1 mps 716 mmHg 84%
    21:00 +10°C° 0.5 mm 1 mps 716 mmHg 84%
    22:00 +10°C° 0.5 mm 1 mps 717 mmHg 84%
    23:00 +10°C° 0.5 mm 1 mps 717 mmHg 84%

    23 January, Wednesday

    Time Temperature Precipitation Wind Pressure Humidity
    00:00 +10°C° 0.7 mm 1 mps 717 mmHg 84%
    01:00 +10°C° 0.7 mm 1 mps 718 mmHg 84%
    02:00 +10°C° 0.7 mm 1 mps 718 mmHg 84%
    03:00 +10°C° 0.3 mm 1 mps 718 mmHg 82%
    04:00 +10°C° 0.3 mm 1 mps 718 mmHg 81%
    05:00 +10°C° 0.3 mm 1 mps 718 mmHg 80%
    06:00 +10°C° 0.1 mm 1 mps 718 mmHg 77%
    07:00 +10°C° 0.1 mm 1 mps 718 mmHg 75%
    08:00 +10°C° 0.1 mm 1 mps 719 mmHg 73%
    09:00 +11°C° 0.1 mm 1 mps 719 mmHg 70%
    10:00 +12°C° 0.1 mm 1 mps 720 mmHg 66%
    11:00 +12°C° 0.1 mm 1 mps 720 mmHg 63%
    12:00 +12°C° 0.2 mm 1 mps 720 mmHg 63%
    13:00 +13°C° 0.2 mm 1 mps 720 mmHg 64%
    14:00 +13°C° 0.2 mm 2 mps 719 mmHg 64%
    15:00 +12°C° 0.3 mm 2 mps 719 mmHg 68%
    16:00 +12°C° 0.3 mm 2 mps 719 mmHg 72%
    17:00 +10°C° 0.3 mm 2 mps 719 mmHg 76%
    18:00 +10°C° 0 mm 2 mps 719 mmHg 76%
    19:00 +9°C° 0 mm 2 mps 720 mmHg 76%
    20:00 +9°C° 0 mm 2 mps 720 mmHg 77%
    21:00 +9°C° 0 mm 2 mps 720 mmHg 75%
    22:00 +9°C° 0 mm 2 mps 720 mmHg 74%
    23:00 +9°C° 0 mm 2 mps 720 mmHg 72%

    24 January, Thursday

    Time Temperature Precipitation Wind Pressure Humidity
    00:00 +8°C° 0 mm 2 mps 720 mmHg 70%
    01:00 +8°C° 0 mm 2 mps 720 mmHg 68%
    02:00 +8°C° 0 mm 2 mps 720 mmHg 66%
    03:00 +8°C° 0 mm 2 mps 720 mmHg 66%
    04:00 +7°C° 0 mm 2 mps 720 mmHg 65%
    05:00 +7°C° 0 mm 2 mps 720 mmHg 64%
    06:00 +7°C° 0 mm 2 mps 721 mmHg 64%
    07:00 +7°C° 0 mm 2 mps 721 mmHg 64%
    08:00 +7°C° 0 mm 2 mps 721 mmHg 64%
    09:00 +9°C° 0 mm 2 mps 722 mmHg 57%
    10:00 +11°C° 0 mm 3 mps 723 mmHg 51%
    11:00 +13°C° 0 mm 3 mps 723 mmHg 44%
    12:00 +13°C° 0 mm 3 mps 722 mmHg 43%
    13:00 +14°C° 0 mm 3 mps 722 mmHg 43%
    14:00 +14°C° 0 mm 3 mps 721 mmHg 42%
    15:00 +14°C° 0 mm 3 mps 721 mmHg 45%
    16:00 +13°C° 0 mm 3 mps 721 mmHg 48%
    17:00 +12°C° 0 mm 3 mps 720 mmHg 52%
    18:00 +11°C° 0 mm 3 mps 721 mmHg 54%
    19:00 +10°C° 0 mm 3 mps 721 mmHg 55%
    20:00 +9°C° 0 mm 3 mps 721 mmHg 57%
    21:00 +8°C° 0 mm 3 mps 721 mmHg 56%
    22:00 +8°C° 0 mm 3 mps 721 mmHg 55%
    23:00 +7°C° 0 mm 3 mps 721 mmHg 54%
    Show more